Location: Castrojimeno
(41.3966°N, 3.8473°W)
Time: 13:30:32
(UTC+00:00)

Cosmos 2237 - Pass Details

Date: 15 May 2026
Orbit: 845 x 858 km, 70.8° (Epoch: 10 June)

Event Time Altitude Azimuth Distance (km) Brightness Sun altitude
Rises 20:38:52 0° 336° (NNW) 3,439 8.6 -12.1°
Reaches altitude 10° 20:41:21 10° 338° (NNW) 2,499 7.7 -12.4°
Maximum altitude 20:47:07 79° 66° (ENE) 876 4.2 -13.2°
Enters shadow 20:51:30 18° 152° (SSE) 1,986 5.6 -13.9°
